Regional Weather Roundup
Issued by NWS

Home | Current Version | Previous Version | Graphics & Text | Print | Product List | Glossary On
Versions: 1 2 3 4 5 6 7 8 9 10 11 12 13 14 15 16 17 18 19 20 21 22 23 24 25 26 27 28 29 30 31 32 33 34 35 36 37 38 39 40 41 42 43 44 45 46 47 48 49 50
800
ASUS43 KMPX 242301
RWRMN
WEATHER ROUNDUP FOR MINNESOTA
NATIONAL WEATHER SERVICE TWIN CITIES/CHANHASSEN MN
600 PM CDT FRI MAR 24 2017


NOTE: "FAIR" INDICATES FEW OR NO CLOUDS BELOW 12,000 FEET WITH NO
SIGNIFICANT WEATHER AND/OR OBSTRUCTIONS TO VISIBILITY. N/A MEANS
CURRENT SKY AND/OR WEATHER CONDITIONS ARE NOT AVAILABLE.

MNZ060>063-068>070-250000-
   Twin Cities Metro

CITY           SKY/WX    TMP DP  RH WIND       PRES   REMARKS
TWIN CITIES    CLOUDY    43  34  70 N12       30.11R
ST PAUL        CLOUDY    43  36  76 N14       30.12R
CRYSTAL        CLOUDY    41  33  73 N12       30.10F
BLAINE         CLOUDY    43  37  81 N12       30.10F
LAKEVILLE      CLOUDY    43  37  81 N13       30.09R
EDEN PRAIRIE   CLOUDY    43  35  73 NE12G17   30.10R
SOUTH ST PAUL  CLOUDY    44  35  72 N8        30.10R
LAKE ELMO      CLOUDY    43  36  75 NE9       30.11R
$$
MNZ001>005-007-008-013>017-022>024-027-028-250000-
   Northwest Minnesota

CITY           SKY/WX    TMP DP  RH WIND       PRES   REMARKS
BEMIDJI        CLOUDY    40  29  64 NE7       30.16R
HALLOCK        CLOUDY   N/A N/A N/A NW7       30.23S
ROSEAU         PTSUNNY   37  27  65 NE3       30.21S
WARROAD        CLOUDY    36  28  75 NE5       30.22R
THIEF RVR FALL SUNNY    N/A N/A N/A N12       30.20S
CROOKSTON      MOSUNNY   36  32  87 N14       30.21S
FOSSTON        MOSUNNY   45  34  65 N7        30.17S
DETROIT LAKES  CLOUDY    43  32  65 N6        30.17R
MOORHEAD       MOSUNNY   37  34  87 N14       30.19S
PARK RAPIDS    CLOUDY    43  28  55 E6        30.15R
MAHNOMEN       FAIR      40  32  74 N10       30.16S
$$
MNZ006-009>011-018-025>026-250000-
   North Central Minnesota

CITY           SKY/WX    TMP DP  RH WIND       PRES   REMARKS
BAUDETTE       CLOUDY    37  25  61 N12       30.19R
FLAG ISLAND    CLOUDY    34  25  69 NE9       30.21S WCI  26
INTL FALLS     CLOUDY    38  25  59 NE5       30.19R
WASKISH        CLOUDY    39  28  65 CALM      30.18R
BIG FORK       CLOUDY    39  28  65 CALM      30.18R
LONGVILLE      CLOUDY    39  30  70 N5        30.17R
GRAND RAPIDS   CLOUDY    38  31  76 NE3       30.19R
CRANE LAKE     CLOUDY    36  28  75 N3        30.21R
ORR            CLOUDY    37  27  65 CALM      30.16R
COOK           CLOUDY    36  30  80 CALM      30.19R
WALKER         CLOUDY    38  30  71 N7        30.16R
$$
MNZ012-019>021-037-250000-
   Northeast Minnesota

CITY           SKY/WX    TMP DP  RH WIND       PRES   REMARKS
DULUTH         CLOUDY    36  32  85 E5        30.16R
ELY            CLOUDY    36  30  80 CALM      30.16R
HIBBING        CLOUDY    36  32  85 N7        30.16R
EVELETH        CLOUDY    37  33  84 CALM      30.18R
DULUTH HARBOR  CLOUDY    36  34  93 CALM      30.19R FOG
TWO HARBORS    CLOUDY    39  34  81 CALM      30.16R
SILVER BAY     CLOUDY    37  36  93 E3        30.16R
GRAND MARAIS     N/A     36  33  89 E3        30.19R
G MARAIS ARPRT CLOUDY    32  27  80 N7        30.15R WCI  26
$$
MNZ029>031-032-039>041-046>048-054>057-064-250000-
   West Central Minnesota

CITY           SKY/WX    TMP DP  RH WIND       PRES   REMARKS
FERGUS FALLS   CLOUDY    45  32  61 N7        30.19R
WHEATON        PTSUNNY   43  34  70 N10       30.19R
MORRIS         CLOUDY    45  36  70 E5        30.13S
ALEXANDRIA     CLOUDY    43  33  68 E7        30.14R
ELBOW LAKE     FAIR      44  34  68 N8        30.15R
WADENA         CLOUDY    43  32  65 NE9       30.14R
GLENWOOD       CLOUDY    43  34  70 NE10      30.14R
APPLETON       MOSUNNY   45  36  70 NE9       30.13R
BENSON         CLOUDY    45  30  57 E9        30.15S
ORTONVILLE     CLOUDY    43  36  75 N15       30.14R
MADISON        PTSUNNY   46  37  71 N12       30.13S
WILLMAR        CLOUDY    41  36  81 N15       30.13F
$$
MNZ033>034-036-042>043-049>051-058-059-250000-
   Central Minnesota

CITY           SKY/WX    TMP DP  RH WIND       PRES   REMARKS
ST CLOUD       CLOUDY    39  33  79 NE5       30.14R
SAUK CENTRE    CLOUDY    40  32  73 NE9       30.14S
PAYNESVILLE      N/A     39  35  86 NE10G18   30.14S
AITKIN         CLOUDY    41  30  65 N7        30.15R
PINE RIVER     CLOUDY    39  32  75 NE5       30.19R
BRAINERD       CLOUDY    39  31  72 NE12      30.16R
STAPLES        CLOUDY    39  30  70 E7        30.16R
LONG PRAIRIE   CLOUDY    37  32  81 N8        30.15R
LITTLE FALLS   CLOUDY    39  32  75 NE5       30.16R
LITCHFIELD     CLOUDY    41  36  81 N15G21    30.11F
BUFFALO        CLOUDY    39  34  81 N7        30.12F
MAPLE LAKE     CLOUDY    40  36  85 N9        30.13F
HUTCHINSON     CLOUDY    40  36  84 N14       30.11S
$$
MNZ037-044-045-052-053-250000-
   East Central Minnesota

CITY           SKY/WX    TMP DP  RH WIND       PRES   REMARKS
PRINCETON      CLOUDY    41  34  75 N12       30.14R
MORA           CLOUDY    37  32  81 NE6       30.16S
CAMBRIDGE      CLOUDY    43  32  65 N8        30.12R
RUSH CITY      CLOUDY    39  33  80 NE8       30.14R
MOOSE LAKE     CLOUDY    37  32  81 NE5       30.14R
HINCKLEY       CLOUDY    39  34  81 NE7       30.14S
CLOQUET        CLOUDY    36  30  80 E3        30.16R
MCGREGOR       CLOUDY    37  32  81 NE7       30.16S
$$
MNZ071>073-080-081-089-090-097-098-250000-
   Southwest Minnesota

CITY           SKY/WX    TMP DP  RH WIND       PRES   REMARKS
MONTEVIDEO     CLOUDY    43  36  75 E13G18    30.14S
GRANITE FALLS  CLOUDY    42  37  81 N16       30.13F
CANBY          CLOUDY    43  37  78 N12       30.13S
MARSHALL       CLOUDY    38  35  89 N14       30.10F
REDWOOD FALLS  CLOUDY    40  34  79 NE10      30.10R
OLIVIA         CLOUDY    39  34  81 N14       30.11R
PIPESTONE      CLOUDY    37  34  87 NE21G28   30.05F FOG
WINDOM         CLOUDY    39  37  93 N13G25    30.06F
WORTHINGTON    CLOUDY    39  37  92 N21       30.06R FOG
JACKSON        CLOUDY    41  36  81 N21       30.05R
TRACY          CLOUDY    39  37  91 N14       30.09F
SLAYTON        CLOUDY    37  35  95 N20       30.06S FOG
$$
MNZ065>067-074>077-082>085-091>093-250000-
   South Central Minnesota

CITY           SKY/WX    TMP DP  RH WIND       PRES   REMARKS
MANKATO        CLOUDY    43  37  79 N16       30.06S
NEW ULM        CLOUDY    41  34  75 N16       30.07F
ST JAMES       CLOUDY    43  37  81 N15       30.08F
FAIRMONT       CLOUDY    43  39  86 N12G21    30.05F
GLENCOE        CLOUDY    40  37  89 N10G16    30.10R
FARIBAULT      CLOUDY    45  37  76 N10       30.08
OWATONNA       CLOUDY    43  37  81 N9        30.07R
WASECA         CLOUDY    41  36  81 N13       30.06F
ALBERT LEA     CLOUDY    39  39 100 NE14G20   30.04R FOG
$$
MNZ078>079-086>088-094>096-250000-
   Southeast Minnesota

CITY           SKY/WX    TMP DP  RH WIND       PRES   REMARKS
ROCHESTER      CLOUDY    39  38  96 NE14      30.05R
RED WING       CLOUDY    45  36  70 NE7       30.08R
STANTON        CLOUDY    44  37  78 N15       30.07R
DODGE CENTER   CLOUDY    39  37  93 NE13      30.06R FOG
WINONA         CLOUDY    41  37  87 NE7       30.07R
AUSTIN         CLOUDY    39  37  93 N14       30.03R
PRESTON        CLOUDY    38  37  92 NE14      30.03R
$$
ABBREVIATIONS USED IN REMARKS
   TC - TEMPERATURES IN CELSIUS
  WCI - WIND CHILL INDEX
   HX - HEAT INDEX
  VSB - VISIBILITY
$$




USA.gov is the U.S. government's official web portal to all federal, state and local government web resources and services.